Location: Moscow
(55.7500°N, 37.5830°E)
Time: 11:35:37
(UTC+03:00)

NRL adapter - Visible Passes

Search period start: 26 June 2022 00:00
Search period end: 06 July 2022 00:00
Orbit: 1060 x 1161 km, 89.9° (Epoch: 25 June)

Date Brightness Start Highest point End Pass type
(mag) Time Alt. Az. Time Alt. Az. Time Alt. Az.
26 Jun ? 00:00:41 10° SSW 00:06:53 42° W 00:13:13 10° N visible
26 Jun ? 01:55:26 10° WNW 01:56:22 10° NW 01:57:18 10° NW visible
26 Jun ? 23:18:21 10° S 23:24:55 69° W 23:31:38 10° N visible
27 Jun ? 01:09:25 10° WSW 01:13:40 17° WNW 01:17:58 10° NNW visible
27 Jun ? 22:36:36 10° SSE 22:43:10 76° E 22:49:54 10° N visible
28 Jun ? 00:25:39 10° SW 00:31:14 28° WNW 00:36:55 10° NNW visible
28 Jun ? 23:42:46 10° SSW 23:49:03 45° W 23:55:30 10° N visible
29 Jun ? 01:36:26 10° WNW 01:38:26 11° NW 01:40:26 10° NW visible
29 Jun ? 23:00:31 10° S 23:07:08 74° W 23:13:53 10° N visible
30 Jun ? 00:51:14 10° WSW 00:55:46 19° WNW 01:00:22 10° NNW visible
30 Jun ? 22:18:51 10° SSE 22:25:24 70° E 22:32:08 10° N visible
01 Jul ? 00:07:38 10° SW 00:13:22 30° WNW 00:19:15 10° NNW visible
01 Jul ? 23:24:51 10° SSW 23:31:14 49° W 23:37:47 10° N visible
02 Jul ? 01:17:50 10° W 01:20:30 12° WNW 01:23:11 10° NNW visible
02 Jul ? 22:42:42 10° S 22:49:20 79° W 22:56:09 10° N visible
03 Jul ? 00:33:04 10° WSW 00:37:53 21° WNW 00:42:46 10° NNW visible
03 Jul ? 23:49:38 10° SW 23:55:31 33° WNW 00:01:34 10° NNW visible
04 Jul ? 23:06:57 10° SSW 23:13:25 53° W 23:20:05 10° N visible
05 Jul ? 00:59:23 10° W 01:02:35 14° WNW 01:05:48 10° NNW visible
05 Jul ? 22:24:53 10° S 22:31:33 85° W 22:38:25 10° N visible
